This demonstration page uses our WeatherBlox Daily Observations layout. Learn more.

Left ArrowRight Arrow

36.19886, -115.1175

Hourly Observations for January 16, 2022

Temp ( °F °C ) Dew Point ( °F °C ) Humidity (%) Winds ( mph kmh ) Pressure ( in mb ) Visibility ( mi km ) Precip ( " mm )
12:53 am 00:53 Clear 44 6.7 17 -8.3 34 34 NW 8 13 30.27 1025 10 16 0.00 0.00
1:53 am 01:53 Clear 46 7.8 17 -8.3 31 31 WNW 7 11 30.27 1025 10 16 0.00 0.00
2:53 am 02:53 Clear 43 6.1 17 -8.3 35 35 W 3 6 30.27 1025 10 16 0.00 0.00
3:53 am 03:53 Clear 42 5.6 18 -7.8 38 38 NW 8 13 30.24 1024 10 16 0.00 0.00
4:53 am 04:53 Clear 41 5 18 -7.8 39 39 WNW 5 7 30.25 1024 10 16 0.00 0.00
5:53 am 05:53 Clear 40 4.4 17 -8.3 40 40 NNW 6 9 30.26 1025 10 16 0.00 0.00
6:53 am 06:53 Sunny 38 3.3 17 -8.3 43 43 WNW 8 13 30.27 1025 10 16 0.00 0.00
7:53 am 07:53 Sunny 39 3.9 18 -7.8 43 43 WNW 6 9 30.27 1025 10 16 0.00 0.00
8:53 am 08:53 Sunny 47 8.3 19 -7.2 33 33 Calm 30.28 1026 10 16 0.00 0.00
9:53 am 09:53 Sunny 52 11.1 18 -7.8 26 26 Calm 30.27 1025 10 16 0.00 0.00
10:53 am 10:53 Sunny 55 12.8 18 -7.8 23 23 Calm 30.24 1024 10 16 0.00 0.00
11:53 am 11:53 Sunny 59 15 17 -8.3 19 19 Calm 30.21 1023 10 16 0.00 0.00
12:53 pm 12:53 Sunny 60 15.6 17 -8.3 19 19 E 3 6 30.18 1022 10 16 0.00 0.00
1:53 pm 13:53 Sunny 61 16.1 17 -8.3 18 18 E 3 6 30.16 1021 10 16 0.00 0.00
2:53 pm 14:53 Sunny 62 16.7 16 -8.9 17 17 Calm 30.12 1020 10 16 0.00 0.00
3:53 pm 15:53 Sunny 62 16.7 16 -8.9 17 17 Calm 30.12 1020 10 16 0.00 0.00
4:53 pm 16:53 Clear 60 15.6 14 -10 16 16 Calm 30.14 1021 10 16 0.00 0.00
5:53 pm 17:53 Clear 56 13.3 15 -9.4 20 20 Calm 30.14 1021 10 16 0.00 0.00
6:53 pm 18:53 Clear 52 11.1 17 -8.3 25 25 W 6 9 30.15 1021 10 16 0.00 0.00
7:53 pm 19:53 Clear 48 8.9 18 -7.8 30 30 NW 5 7 30.16 1022 10 16 0.00 0.00
8:53 pm 20:53 Clear 47 8.3 19 -7.2 33 33 WNW 5 7 30.16 1021 10 16 0.00 0.00
9:53 pm 21:53 Clear 45 7.2 19 -7.2 35 35 NNW 5 7 30.14 1021 10 16 0.00 0.00
10:53 pm 22:53 Clear 45 7.2 20 -6.7 37 37 WNW 7 11 30.14 1021 10 16 0.00 0.00
11:53 pm 23:53 Clear 43 6.1 18 -7.8 37 37 WNW 6 9 30.13 1020 10 16 0.00 0.00

Powered by AerisWeather